World > North America > United States > Illinois

Hourly Ipava, IL Regional Weather

Feedback E-mail the Weather

Quick WX

Ipava, IL Weather Maps

°F °C°F °C
Ipava Weather Map
UTC Time: 6/29/2022, 00:47
Your Time:

Ipava, IL Regional Weather

Expires:202206290100;;356481
ASUS43 KLOT 290008
RWRIL 

ILLINOIS REGIONAL WEATHER ROUNDUP
NATIONAL WEATHER SERVICE CHICAGO/ROMEOVILLE IL
700 PM CDT TUE JUN 28 2022

NOTE: "FAIR" INDICATES FEW OR NO CLOUDS BELOW 12,000 FEET WITH NO
SIGNIFICANT WEATHER AND/OR OBSTRUCTIONS TO VISIBILITY.

* THESE STATIONS ARE NOT UNDER NWS QUALITY CONTROL. THEY ALSO MAY NOT
  REPORT WEATHER SUCH AS PRECIPITATION OR FOG.


ILZ025>027-034>036-040-047-049-050-058-095>099-290100-
WEST-CENTRAL ILLINOIS
  
CITY           SKY/WX    TMP DP  RH WIND       PRES   REMARKS
QUINCY         SUNNY     81  54  39 S8        30.14F HX  81           
GALESBURG*     SUNNY     78  60  54 S8          N/A  HX  80           
MACOMB*        SUNNY     80  52  38 S7        30.17S HX  80           
JACKSONVILLE*  SUNNY     79  55  42 SW6       30.16S HX  80           
PITTSFIELD*    SUNNY     80  57  46 S6        30.17S HX  80           
$$


SKY/WX - Weather  TMP - Temperature  DP - Dew Point  RH - Humidity
WIND - Wind Direction/Speed PRES - Barometric Pressure VSB - Visibility
WCI - Wind Chill Index E13G22 Wind - East Wind 13 mph/Gusts of 22 mph

Trending Headlines

Ipava Radar Loop



Ipava Quick Facts


National Two Day Weather Forecast


E-mail the Ipava Weather Forecast

Voice your opinion or tell us about page issues...